"Date","Time","Latitude","Longitude","Speed","Course","Altitude","Satellites","GPS quality","C1","0.25um","0.28um","0.3um","0.35um","0.4um","0.45um","0.5um","0.58um","C2","0.65um","0.7um","0.8um","1.0um","1.3um","1.6um","2.0um","2.5um","C3","3.0um","3.5um","4.0um","5.0um","6.5um","7.5um","8.5um","10.0um","C4","12.5um","15.0um","17.5um","20.0um","25.0um","30.0um","32.0um",">32um"
01/09/11,09:27:30,51 53.6284 N,002 10.3211 W,74.34,83.86,29.2,09,1,N5,113,101,92,86,79,72,68,67,N5,65,63,63,62,62,62,62,60,n5,31,17,17,8,0,0,0,0,n5,0,0,0,0,0,0,0,0
01/09/11,09:27:36,51 53.6446 N,002 10.0796 W,96.16,83.71,34.5,09,1,N6,132,121,112,107,100,95,91,89,N6,89,88,88,87,87,87,87,81,n6,52,27,24,24,16,0,0,0,n6,0,0,0,0,0,0,0,0
01/09/11,09:27:42,51 53.6663 N,002 09.8062 W,103.80,82.46,63.1,09,1,N7,93,81,71,65,58,51,47,46,N7,45,44,43,43,42,41,38,38,n7,38,38,32,32,16,0,0,0,n7,0,0,0,0,0,0,0,0
01/09/11,09:27:47,51 53.6846 N,002 09.5669 W,108.32,83.12,94.5,09,1,N8,93,81,72,66,60,54,51,49,N8,48,47,47,46,46,45,40,40,n8,18,18,17,8,0,0,0,0,n8,0,0,0,0,0,0,0,0
01/09/11,09:27:54,51 53.7049 N,002 09.2275 W,106.83,85.92,160.9,08,1,N9,78,66,56,50,42,34,29,28,N9,26,25,25,25,24,23,22,22,n9,13,3,0,0,0,0,0,0,n9,0,0,0,0,0,0,0,0
01/09/11,09:28:00,51 53.7304 N,002 08.9421 W,107.84,76.38,217.4,09,1,N0,88,77,67,61,53,46,42,40,N0,38,37,37,36,35,34,32,26,n0,25,25,16,16,16,0,0,0,n0,0,0,0,0,0,0,0,0
01/09/11,09:28:06,51 53.8181 N,002 08.6710 W,117.73,55.78,248.1,08,1,N1,116,104,94,89,81,74,69,68,N1,67,66,66,65,65,64,63,63,n1,61,60,54,49,33,0,0,0,n1,0,0,0,0,0,0,0,0
01/09/11,09:28:12,51 53.9736 N,002 08.4592 W,124.20,32.37,288.3,09,1,N2,104,93,83,77,70,64,59,58,N2,56,55,55,54,53,52,49,41,n2,30,22,16,16,0,0,0,0,n2,0,0,0,0,0,0,0,0
01/09/11,09:28:17,51 54.1376 N,002 08.3577 W,126.95,17.57,324.1,09,1,N3,102,90,79,73,65,58,53,52,N3,51,51,50,50,49,48,48,45,n3,37,35,25,16,16,0,0,0,n3,0,0,0,0,0,0,0,0
01/09/11,09:28:24,51 54.3932 N,002 08.3416 W,134.93,353.80,366.1,09,1,N4,82,71,62,56,49,42,38,37,N4,35,34,34,34,33,32,31,28,n4,11,9,9,0,0,0,0,0,n4,0,0,0,0,0,0,0,0
01/09/11,09:28:30,51 54.6131 N,002 08.4806 W,145.02,331.25,382.2,09,1,N5,61,49,39,32,25,17,13,11,N5,10,10,9,9,8,7,7,7,n5,4,3,0,0,0,0,0,0,n5,0,0,0,0,0,0,0,0
01/09/11,09:28:36,51 54.7896 N,002 08.7606 W,148.70,308.42,408.4,09,1,N6,113,100,89,82,74,66,60,59,N6,57,56,56,56,55,54,52,51,n6,34,28,25,16,0,0,0,0,n6,0,0,0,0,0,0,0,0
01/09/11,09:28:42,51 54.8913 N,002 09.1241 W,146.23,289.48,449.9,09,1,N7,88,75,64,57,49,42,37,36,N7,35,34,33,32,32,32,32,27,n7,15,3,0,0,0,0,0,0,n7,0,0,0,0,0,0,0,0
01/09/11,09:28:47,51 54.9280 N,002 09.4476 W,144.66,277.84,488.4,09,1,N8,71,59,48,41,34,26,22,20,N8,19,18,18,17,17,16,16,15,n8,14,13,4,0,0,0,0,0,n8,0,0,0,0,0,0,0,0
01/09/11,09:28:54,51 54.9258 N,002 09.9169 W,150.66,265.31,507.1,09,1,N9,93,79,67,59,51,41,35,33,N9,32,31,30,30,30,29,27,26,n9,23,15,12,8,0,0,0,0,n9,0,0,0,0,0,0,0,0
01/09/11,09:29:00,51 54.8717 N,002 10.3258 W,155.95,254.97,515.9,09,1,N0,105,91,78,70,61,52,46,44,N0,43,42,42,42,42,42,40,39,n0,12,8,8,8,0,0,0,0,n0,0,0,0,0,0,0,0,0
01/09/11,09:29:06,51 54.7954 N,002 10.7460 W,164.23,253.33,520.5,09,1,N1,89,76,65,58,48,39,33,32,N1,30,29,29,28,27,26,26,23,n1,15,4,4,0,0,0,0,0,n1,0,0,0,0,0,0,0,0
01/09/11,09:29:12,51 54.7100 N,002 11.1790 W,169.24,251.78,533.5,09,1,N2,101,88,76,68,59,49,43,41,N2,39,38,38,38,37,36,35,32,n2,18,12,9,0,0,0,0,0,n2,0,0,0,0,0,0,0,0
01/09/11,09:29:17,51 54.6273 N,002 11.5482 W,176.62,249.47,526.1,09,1,N3,105,91,80,72,63,54,49,47,N3,45,44,44,43,43,42,41,39,n3,19,3,0,0,0,0,0,0,n3,0,0,0,0,0,0,0,0
01/09/11,09:29:24,51 54.4946 N,002 12.0874 W,187.10,248.01,511.5,09,1,N4,96,83,71,64,54,45,39,36,N4,34,33,33,32,32,31,31,29,n4,23,23,20,16,0,0,0,0,n4,0,0,0,0,0,0,0,0
01/09/11,09:29:30,51 54.3709 N,002 12.5674 W,195.01,247.57,494.0,09,1,N5,87,72,59,51,40,29,23,20,N5,19,18,17,17,15,15,14,11,n5,9,9,0,0,0,0,0,0,n5,0,0,0,0,0,0,0,0
01/09/11,09:29:36,51 54.2429 N,002 13.0634 W,200.24,247.28,482.5,09,1,N6,53,40,30,24,18,12,8,5,N6,4,3,3,2,1,1,0,0,n6,0,0,0,0,0,0,0,0,n6,0,0,0,0,0,0,0,0
01/09/11,09:29:42,51 54.0999 N,002 13.5563 W,202.20,243.27,471.9,09,1,N7,122,109,98,90,80,72,67,65,N7,62,61,60,60,58,57,53,50,n7,41,21,12,8,0,0,0,0,n7,0,0,0,0,0,0,0,0
01/09/11,09:29:47,51 53.9547 N,002 13.9471 W,202.65,237.78,466.4,09,1,N8,94,80,69,62,53,45,40,38,N8,36,35,34,34,33,31,31,29,n8,16,7,4,0,0,0,0,0,n8,0,0,0,0,0,0,0,0
01/09/11,09:29:54,51 53.7290 N,002 14.4738 W,204.02,234.16,462.9,09,1,N9,74,61,50,44,35,28,24,22,N9,20,19,19,19,18,18,15,14,n9,12,12,9,0,0,0,0,0,n9,0,0,0,0,0,0,0,0
01/09/11,09:30:00,51 53.5287 N,002 14.9211 W,204.79,234.25,464.5,09,1,N0,79,66,54,46,37,28,22,20,N0,19,18,18,17,16,15,15,14,n0,11,11,8,8,0,0,0,0,n0,0,0,0,0,0,0,0,0
01/09/11,09:30:06,51 53.3331 N,002 15.3749 W,205.10,236.04,467.9,09,1,N1,125,111,100,91,80,70,64,62,N1,60,60,59,59,59,59,59,54,n1,40,33,30,30,30,30,0,0,n1,0,0,0,0,0,0,0,0
01/09/11,09:30:12,51 53.1428 N,002 15.8333 W,204.56,236.24,470.6,09,1,N2,112,99,88,80,68,58,52,49,N2,47,45,45,45,44,44,44,43,n2,38,27,24,24,0,0,0,0,n2,0,0,0,0,0,0,0,0
01/09/11,09:30:17,51 52.9891 N,002 16.2203 W,205.45,238.36,470.0,09,1,N3,103,89,78,69,59,48,42,40,N3,38,37,37,35,34,34,33,30,n3,28,19,16,16,0,0,0,0,n3,0,0,0,0,0,0,0,0
01/09/11,09:30:24,51 52.7878 N,002 16.7817 W,206.90,240.15,459.7,09,1,N4,96,83,72,64,55,46,41,39,N4,37,36,36,35,35,35,33,32,n4,30,30,29,24,16,0,0,0,n4,0,0,0,0,0,0,0,0
01/09/11,09:30:30,51 52.6164 N,002 17.2613 W,204.87,239.86,471.4,09,1,N5,58,46,36,28,19,10,5,3,N5,2,1,1,0,0,0,0,0,n5,0,0,0,0,0,0,0,0,n5,0,0,0,0,0,0,0,0
01/09/11,09:30:36,51 52.4435 N,002 17.7323 W,202.61,239.26,487.2,09,1,N6,68,54,43,34,24,15,9,7,N6,6,5,5,5,4,4,3,0,n6,0,0,0,0,0,0,0,0,n6,0,0,0,0,0,0,0,0
01/09/11,09:30:42,51 52.2703 N,002 18.1974 W,201.22,238.97,499.9,09,1,N7,84,71,60,52,43,34,28,26,N7,23,22,22,21,21,21,21,20,n7,12,12,8,8,0,0,0,0,n7,0,0,0,0,0,0,0,0
01/09/11,09:30:47,51 52.1256 N,002 18.5815 W,200.00,238.59,509.6,09,1,N8,130,116,104,96,85,74,67,64,N8,62,61,61,60,60,59,55,54,n8,41,37,34,24,16,0,0,0,n8,0,0,0,0,0,0,0,0
01/09/11,09:30:54,51 51.9192 N,002 19.1079 W,197.76,237.30,529.0,09,1,N9,77,63,51,43,31,19,12,9,N9,6,5,4,4,3,2,1,0,n9,0,0,0,0,0,0,0,0,n9,0,0,0,0,0,0,0,0
01/09/11,09:31:00,51 51.7449 N,002 19.5452 W,189.40,237.17,548.0,09,1,N0,104,90,77,68,56,45,37,33,N0,31,29,29,29,28,28,26,25,n0,18,9,0,0,0,0,0,0,n0,0,0,0,0,0,0,0,0
01/09/11,09:31:06,51 51.5862 N,002 19.9588 W,177.05,239.24,561.6,09,1,N1,103,89,77,68,57,44,36,33,N1,31,29,29,28,28,28,23,21,n1,11,6,0,0,0,0,0,0,n1,0,0,0,0,0,0,0,0
01/09/11,09:31:12,51 51.4523 N,002 20.3632 W,168.44,243.59,568.0,09,1,N2,113,99,87,78,66,55,47,43,N2,41,39,39,38,38,36,35,32,n2,21,19,16,16,0,0,0,0,n2,0,0,0,0,0,0,0,0
01/09/11,09:31:17,51 51.3612 N,002 20.7062 W,166.68,247.54,590.9,09,1,N3,84,72,61,54,44,35,30,27,N3,25,24,24,23,22,22,20,20,n3,18,18,18,16,0,0,0,0,n3,0,0,0,0,0,0,0,0
01/09/11,09:31:24,51 51.2568 N,002 21.1982 W,165.78,252.02,630.7,09,1,N4,109,95,84,76,67,57,51,48,N4,47,46,45,45,45,45,45,42,n4,42,42,42,32,16,0,0,0,n4,0,0,0,0,0,0,0,0
01/09/11,09:31:30,51 51.1774 N,002 21.6250 W,165.70,253.46,665.8,09,1,N5,74,61,50,43,35,26,21,18,N5,16,15,15,15,14,13,13,13,n5,4,4,4,0,0,0,0,0,n5,0,0,0,0,0,0,0,0
01/09/11,09:31:36,51 51.1000 N,002 22.0422 W,160.60,253.04,723.5,09,1,N6,93,80,68,60,50,40,33,30,N6,28,27,27,27,27,26,24,24,n6,14,8,8,8,0,0,0,0,n6,0,0,0,0,0,0,0,0
01/09/11,09:31:42,51 51.0240 N,002 22.4519 W,158.43,253.18,779.0,09,1,N7,136,119,105,94,81,63,50,43,N7,36,31,29,29,29,29,28,23,n7,17,15,12,8,0,0,0,0,n7,0,0,0,0,0,0,0,0
01/09/11,09:31:47,51 50.9630 N,002 22.7859 W,154.32,253.77,831.2,09,1,N8,149,132,116,104,88,66,47,38,N8,28,23,22,20,18,18,18,15,n8,15,15,0,0,0,0,0,0,n8,0,0,0,0,0,0,0,0
01/09/11,09:31:54,51 50.8815 N,002 23.2364 W,147.42,253.59,910.3,09,1,N9,193,175,158,145,127,103,82,70,N9,60,54,53,51,48,47,47,46,n9,44,31,25,16,0,0,0,0,n9,0,0,0,0,0,0,0,0
01/09/11,09:32:00,51 50.8101 N,002 23.6052 W,142.21,252.02,975.8,09,1,N0,171,153,136,124,105,81,56,43,N0,30,25,23,22,20,19,16,13,n0,4,4,4,0,0,0,0,0,n0,0,0,0,0,0,0,0,0
01/09/11,09:32:06,51 50.7403 N,002 23.9612 W,137.78,253.19,1036.9,09,1,N1,186,168,151,139,121,97,75,65,N1,53,48,47,45,44,43,42,39,n1,23,8,8,8,0,0,0,0,n1,0,0,0,0,0,0,0,0
01/09/11,09:32:12,51 50.6834 N,002 24.3130 W,134.29,256.11,1094.8,09,1,N2,179,160,143,129,108,78,49,32,N2,18,11,10,8,6,4,1,0,n2,0,0,0,0,0,0,0,0,n2,0,0,0,0,0,0,0,0
01/09/11,09:32:17,51 50.6388 N,002 24.6020 W,132.79,255.75,1140.2,09,1,N3,237,218,199,184,159,126,95,76,N3,60,50,46,43,41,39,38,33,n3,33,33,24,24,16,0,0,0,n3,0,0,0,0,0,0,0,0
01/09/11,09:32:24,51 50.5746 N,002 24.9988 W,129.23,255.20,1207.9,09,1,N4,277,259,241,225,201,167,134,117,N4,103,93,91,89,87,87,77,71,n4,63,47,41,32,0,0,0,0,n4,0,0,0,0,0,0,0,0
01/09/11,09:32:30,51 50.5210 N,002 25.3263 W,125.54,255.29,1267.7,09,1,N5,189,173,158,146,126,99,73,57,N5,45,39,37,36,35,34,32,32,n5,32,24,12,8,0,0,0,0,n5,0,0,0,0,0,0,0,0
01/09/11,09:32:36,51 50.4651 N,002 25.6570 W,129.09,254.57,1302.1,09,1,N6,106,92,80,72,59,44,29,22,N6,17,14,13,12,11,11,11,10,n6,0,0,0,0,0,0,0,0,n6,0,0,0,0,0,0,0,0
01/09/11,09:32:42,51 50.4057 N,002 25.9940 W,130.80,253.63,1339.5,09,1,N7,0,0,0,0,0,0,0,0,N7,0,0,0,0,0,0,0,0,n7,0,0,0,0,0,0,0,0,n7,0,0,0,0,0,0,0,0
01/09/11,09:32:47,51 50.3538 N,002 26.2731 W,130.02,253.43,1377.2,09,1,N8,0,0,0,0,0,0,0,0,N8,0,0,0,0,0,0,0,0,n8,0,0,0,0,0,0,0,0,n8,0,0,0,0,0,0,0,0
01/09/11,09:32:54,51 50.2926 N,002 26.6777 W,136.50,257.66,1408.8,09,1,N9,0,0,0,0,0,0,0,0,N9,0,0,0,0,0,0,0,0,n9,0,0,0,0,0,0,0,0,n9,0,0,0,0,0,0,0,0
01/09/11,09:33:00,51 50.2344 N,002 27.0542 W,147.60,254.70,1406.1,09,1,N0,0,0,0,0,0,0,0,0,N0,0,0,0,0,0,0,0,0,n0,0,0,0,0,0,0,0,0,n0,0,0,0,0,0,0,0,0
01/09/11,09:33:06,51 50.1536 N,002 27.4398 W,153.29,250.77,1418.3,09,1,N1,0,0,0,0,0,0,0,0,N1,0,0,0,0,0,0,0,0,n1,0,0,0,0,0,0,0,0,n1,0,0,0,0,0,0,0,0
01/09/11,09:33:12,51 50.0746 N,002 27.8409 W,157.91,252.85,1431.1,09,1,N2,1,1,1,1,1,1,1,1,N2,1,1,1,1,1,1,0,0,n2,0,0,0,0,0,0,0,0,n2,0,0,0,0,0,0,0,0
01/09/11,09:33:17,51 50.0114 N,002 28.1849 W,160.92,253.74,1442.1,09,1,N3,0,0,0,0,0,0,0,0,N3,0,0,0,0,0,0,0,0,n3,0,0,0,0,0,0,0,0,n3,0,0,0,0,0,0,0,0
01/09/11,09:33:24,51 49.9363 N,002 28.6832 W,165.13,258.64,1457.7,09,1,N4,0,0,0,0,0,0,0,0,N4,0,0,0,0,0,0,0,0,n4,0,0,0,0,0,0,0,0,n4,0,0,0,0,0,0,0,0
01/09/11,09:33:30,51 49.8936 N,002 29.1314 W,171.21,262.28,1457.1,09,1,N5,0,0,0,0,0,0,0,0,N5,0,0,0,0,0,0,0,0,n5,0,0,0,0,0,0,0,0,n5,0,0,0,0,0,0,0,0
01/09/11,09:33:36,51 49.8573 N,002 29.6041 W,180.02,263.21,1434.4,09,1,N6,0,0,0,0,0,0,0,0,N6,0,0,0,0,0,0,0,0,n6,0,0,0,0,0,0,0,0,n6,0,0,0,0,0,0,0,0
01/09/11,09:33:42,51 49.8224 N,002 30.0983 W,186.58,263.42,1415.3,09,1,N7,0,0,0,0,0,0,0,0,N7,0,0,0,0,0,0,0,0,n7,0,0,0,0,0,0,0,0,n7,0,0,0,0,0,0,0,0
01/09/11,09:33:47,51 49.7929 N,002 30.5154 W,187.08,263.28,1413.0,09,1,N8,0,0,0,0,0,0,0,0,N8,0,0,0,0,0,0,0,0,n8,0,0,0,0,0,0,0,0,n8,0,0,0,0,0,0,0,0
01/09/11,09:33:54,51 49.7548 N,002 31.0981 W,186.43,264.75,1413.7,09,1,N9,0,0,0,0,0,0,0,0,N9,0,0,0,0,0,0,0,0,n9,0,0,0,0,0,0,0,0,n9,0,0,0,0,0,0,0,0
01/09/11,09:34:00,51 49.7382 N,002 31.5981 W,186.01,267.76,1414.9,09,1,N0,1,1,1,1,1,1,1,1,N0,1,1,1,1,1,1,1,0,n0,0,0,0,0,0,0,0,0,n0,0,0,0,0,0,0,0,0
01/09/11,09:34:06,51 49.7360 N,002 32.1004 W,187.51,270.38,1404.6,09,1,N1,0,0,0,0,0,0,0,0,N1,0,0,0,0,0,0,0,0,n1,0,0,0,0,0,0,0,0,n1,0,0,0,0,0,0,0,0
01/09/11,09:34:12,51 49.7429 N,002 32.6077 W,188.69,271.50,1395.4,09,1,N2,0,0,0,0,0,0,0,0,N2,0,0,0,0,0,0,0,0,n2,0,0,0,0,0,0,0,0,n2,0,0,0,0,0,0,0,0
01/09/11,09:34:17,51 49.7529 N,002 33.0294 W,188.07,272.28,1395.6,09,1,N3,0,0,0,0,0,0,0,0,N3,0,0,0,0,0,0,0,0,n3,0,0,0,0,0,0,0,0,n3,0,0,0,0,0,0,0,0
01/09/11,09:34:24,51 49.7731 N,002 33.6167 W,187.19,273.76,1398.1,09,1,N4,0,0,0,0,0,0,0,0,N4,0,0,0,0,0,0,0,0,n4,0,0,0,0,0,0,0,0,n4,0,0,0,0,0,0,0,0
01/09/11,09:34:30,51 49.8035 N,002 34.1172 W,186.94,276.17,1398.6,09,1,N5,0,0,0,0,0,0,0,0,N5,0,0,0,0,0,0,0,0,n5,0,0,0,0,0,0,0,0,n5,0,0,0,0,0,0,0,0
01/09/11,09:34:36,51 49.8425 N,002 34.6159 W,186.98,277.61,1396.2,09,1,N6,0,0,0,0,0,0,0,0,N6,0,0,0,0,0,0,0,0,n6,0,0,0,0,0,0,0,0,n6,0,0,0,0,0,0,0,0
01/09/11,09:34:42,51 49.8880 N,002 35.1119 W,186.31,278.74,1397.0,09,1,N7,0,0,0,0,0,0,0,0,N7,0,0,0,0,0,0,0,0,n7,0,0,0,0,0,0,0,0,n7,0,0,0,0,0,0,0,0
01/09/11,09:34:47,51 49.9308 N,002 35.5230 W,186.04,279.77,1397.4,09,1,N8,0,0,0,0,0,0,0,0,N8,0,0,0,0,0,0,0,0,n8,0,0,0,0,0,0,0,0,n8,0,0,0,0,0,0,0,0
01/09/11,09:34:54,51 49.9969 N,002 36.0953 W,185.46,280.82,1397.7,09,1,N9,2,2,1,1,1,1,1,1,N9,1,1,1,1,1,1,0,0,n9,0,0,0,0,0,0,0,0,n9,0,0,0,0,0,0,0,0
01/09/11,09:35:00,51 50.0586 N,002 36.5830 W,184.97,281.82,1399.0,09,1,N0,0,0,0,0,0,0,0,0,N0,0,0,0,0,0,0,0,0,n0,0,0,0,0,0,0,0,0,n0,0,0,0,0,0,0,0,0
01/09/11,09:35:06,51 50.1241 N,002 37.0683 W,184.83,282.39,1399.2,09,1,N1,0,0,0,0,0,0,0,0,N1,0,0,0,0,0,0,0,0,n1,0,0,0,0,0,0,0,0,n1,0,0,0,0,0,0,0,0
01/09/11,09:35:12,51 50.1924 N,002 37.5531 W,185.00,283.03,1398.6,09,1,N2,0,0,0,0,0,0,0,0,N2,0,0,0,0,0,0,0,0,n2,0,0,0,0,0,0,0,0,n2,0,0,0,0,0,0,0,0
01/09/11,09:35:17,51 50.2514 N,002 37.9566 W,185.18,283.28,1396.6,09,1,N3,0,0,0,0,0,0,0,0,N3,0,0,0,0,0,0,0,0,n3,0,0,0,0,0,0,0,0,n3,0,0,0,0,0,0,0,0
01/09/11,09:35:24,51 50.3356 N,002 38.5203 W,184.73,283.64,1396.5,09,1,N4,0,0,0,0,0,0,0,0,N4,0,0,0,0,0,0,0,0,n4,0,0,0,0,0,0,0,0,n4,0,0,0,0,0,0,0,0
01/09/11,09:35:30,51 50.4088 N,002 39.0018 W,184.34,283.78,1396.1,09,1,N5,0,0,0,0,0,0,0,0,N5,0,0,0,0,0,0,0,0,n5,0,0,0,0,0,0,0,0,n5,0,0,0,0,0,0,0,0
01/09/11,09:35:36,51 50.4823 N,002 39.4816 W,183.68,283.89,1396.8,09,1,N6,0,0,0,0,0,0,0,0,N6,0,0,0,0,0,0,0,0,n6,0,0,0,0,0,0,0,0,n6,0,0,0,0,0,0,0,0
01/09/11,09:35:42,51 50.5557 N,002 39.9601 W,183.38,283.87,1395.9,09,1,N7,0,0,0,0,0,0,0,0,N7,0,0,0,0,0,0,0,0,n7,0,0,0,0,0,0,0,0,n7,0,0,0,0,0,0,0,0
01/09/11,09:35:47,51 50.6161 N,002 40.3582 W,182.86,283.67,1396.7,09,1,N8,0,0,0,0,0,0,0,0,N8,0,0,0,0,0,0,0,0,n8,0,0,0,0,0,0,0,0,n8,0,0,0,0,0,0,0,0
01/09/11,09:35:54,51 50.6990 N,002 40.9152 W,182.70,283.46,1396.2,09,1,N9,0,0,0,0,0,0,0,0,N9,0,0,0,0,0,0,0,0,n9,0,0,0,0,0,0,0,0,n9,0,0,0,0,0,0,0,0
01/09/11,09:36:00,51 50.7694 N,002 41.3918 W,182.19,283.36,1396.8,09,1,N0,0,0,0,0,0,0,0,0,N0,0,0,0,0,0,0,0,0,n0,0,0,0,0,0,0,0,0,n0,0,0,0,0,0,0,0,0
01/09/11,09:36:06,51 50.8385 N,002 41.8678 W,181.72,283.07,1398.2,09,1,N1,0,0,0,0,0,0,0,0,N1,0,0,0,0,0,0,0,0,n1,0,0,0,0,0,0,0,0,n1,0,0,0,0,0,0,0,0
01/09/11,09:36:12,51 50.9064 N,002 42.3431 W,181.53,282.95,1398.5,09,1,N2,0,0,0,0,0,0,0,0,N2,0,0,0,0,0,0,0,0,n2,0,0,0,0,0,0,0,0,n2,0,0,0,0,0,0,0,0
01/09/11,09:36:17,51 50.9624 N,002 42.7393 W,181.39,282.76,1398.8,09,1,N3,0,0,0,0,0,0,0,0,N3,0,0,0,0,0,0,0,0,n3,0,0,0,0,0,0,0,0,n3,0,0,0,0,0,0,0,0
01/09/11,09:36:24,51 51.0385 N,002 43.2941 W,181.29,282.41,1397.5,09,1,N4,0,0,0,0,0,0,0,0,N4,0,0,0,0,0,0,0,0,n4,0,0,0,0,0,0,0,0,n4,0,0,0,0,0,0,0,0
01/09/11,09:36:30,51 51.1032 N,002 43.7695 W,180.95,282.36,1398.1,09,1,N5,0,0,0,0,0,0,0,0,N5,0,0,0,0,0,0,0,0,n5,0,0,0,0,0,0,0,0,n5,0,0,0,0,0,0,0,0
01/09/11,09:36:36,51 51.1669 N,002 44.2452 W,181.14,282.12,1397.1,09,1,N6,0,0,0,0,0,0,0,0,N6,0,0,0,0,0,0,0,0,n6,0,0,0,0,0,0,0,0,n6,0,0,0,0,0,0,0,0
01/09/11,09:36:42,51 51.2290 N,002 44.7213 W,181.07,281.80,1396.9,09,1,N7,0,0,0,0,0,0,0,0,N7,0,0,0,0,0,0,0,0,n7,0,0,0,0,0,0,0,0,n7,0,0,0,0,0,0,0,0
01/09/11,09:36:47,51 51.2799 N,002 45.1188 W,181.24,281.63,1396.7,09,1,N8,0,0,0,0,0,0,0,0,N8,0,0,0,0,0,0,0,0,n8,0,0,0,0,0,0,0,0,n8,0,0,0,0,0,0,0,0
01/09/11,09:36:54,51 51.3495 N,002 45.6759 W,181.35,281.22,1395.2,09,1,N9,0,0,0,0,0,0,0,0,N9,0,0,0,0,0,0,0,0,n9,0,0,0,0,0,0,0,0,n9,0,0,0,0,0,0,0,0
01/09/11,09:37:00,51 51.4066 N,002 46.1540 W,180.98,280.87,1395.0,09,1,N0,0,0,0,0,0,0,0,0,N0,0,0,0,0,0,0,0,0,n0,0,0,0,0,0,0,0,0,n0,0,0,0,0,0,0,0,0
01/09/11,09:37:06,51 51.4629 N,002 46.6316 W,180.81,280.75,1395.8,09,1,N1,0,0,0,0,0,0,0,0,N1,0,0,0,0,0,0,0,0,n1,0,0,0,0,0,0,0,0,n1,0,0,0,0,0,0,0,0
01/09/11,09:37:12,51 51.5173 N,002 47.1087 W,180.39,280.29,1397.3,09,1,N2,0,0,0,0,0,0,0,0,N2,0,0,0,0,0,0,0,0,n2,0,0,0,0,0,0,0,0,n2,0,0,0,0,0,0,0,0
01/09/11,09:37:17,51 51.5618 N,002 47.5065 W,180.51,280.25,1396.5,09,1,N3,0,0,0,0,0,0,0,0,N3,0,0,0,0,0,0,0,0,n3,0,0,0,0,0,0,0,0,n3,0,0,0,0,0,0,0,0
01/09/11,09:37:24,51 51.6239 N,002 48.0633 W,180.31,280.18,1395.8,09,1,N4,0,0,0,0,0,0,0,0,N4,0,0,0,0,0,0,0,0,n4,0,0,0,0,0,0,0,0,n4,0,0,0,0,0,0,0,0
01/09/11,09:37:30,51 51.6761 N,002 48.5405 W,180.24,280.04,1395.9,09,1,N5,0,0,0,0,0,0,0,0,N5,0,0,0,0,0,0,0,0,n5,0,0,0,0,0,0,0,0,n5,0,0,0,0,0,0,0,0
01/09/11,09:37:36,51 51.7293 N,002 49.0171 W,180.23,280.29,1396.6,09,1,N6,0,0,0,0,0,0,0,0,N6,0,0,0,0,0,0,0,0,n6,0,0,0,0,0,0,0,0,n6,0,0,0,0,0,0,0,0
01/09/11,09:37:42,51 51.7835 N,002 49.4944 W,180.60,280.50,1397.2,09,1,N7,0,0,0,0,0,0,0,0,N7,0,0,0,0,0,0,0,0,n7,0,0,0,0,0,0,0,0,n7,0,0,0,0,0,0,0,0
01/09/11,09:37:47,51 51.8297 N,002 49.8925 W,180.98,280.68,1396.8,09,1,N8,0,0,0,0,0,0,0,0,N8,0,0,0,0,0,0,0,0,n8,0,0,0,0,0,0,0,0,n8,0,0,0,0,0,0,0,0
01/09/11,09:37:54,51 51.8950 N,002 50.4512 W,181.26,280.68,1397.4,09,1,N9,0,0,0,0,0,0,0,0,N9,0,0,0,0,0,0,0,0,n9,0,0,0,0,0,0,0,0,n9,0,0,0,0,0,0,0,0
01/09/11,09:38:00,51 51.9518 N,002 50.9306 W,181.72,280.96,1396.7,09,1,N0,0,0,0,0,0,0,0,0,N0,0,0,0,0,0,0,0,0,n0,0,0,0,0,0,0,0,0,n0,0,0,0,0,0,0,0,0
01/09/11,09:38:06,51 52.0098 N,002 51.4100 W,181.69,281.04,1396.4,09,1,N1,0,0,0,0,0,0,0,0,N1,0,0,0,0,0,0,0,0,n1,0,0,0,0,0,0,0,0,n1,0,0,0,0,0,0,0,0
01/09/11,09:38:12,51 52.0684 N,002 51.8896 W,181.82,281.23,1396.1,09,1,N2,0,0,0,0,0,0,0,0,N2,0,0,0,0,0,0,0,0,n2,0,0,0,0,0,0,0,0,n2,0,0,0,0,0,0,0,0
01/09/11,09:38:17,51 52.1175 N,002 52.2887 W,181.57,281.24,1397.8,09,1,N3,0,0,0,0,0,0,0,0,N3,0,0,0,0,0,0,0,0,n3,0,0,0,0,0,0,0,0,n3,0,0,0,0,0,0,0,0
01/09/11,09:38:24,51 52.1859 N,002 52.8477 W,181.70,281.16,1397.0,09,1,N4,0,0,0,0,0,0,0,0,N4,0,0,0,0,0,0,0,0,n4,0,0,0,0,0,0,0,0,n4,0,0,0,0,0,0,0,0
01/09/11,09:38:30,51 52.2434 N,002 53.3273 W,181.63,280.88,1396.7,09,1,N5,0,0,0,0,0,0,0,0,N5,0,0,0,0,0,0,0,0,n5,0,0,0,0,0,0,0,0,n5,0,0,0,0,0,0,0,0
01/09/11,09:38:36,51 52.3003 N,002 53.8068 W,181.64,280.83,1395.6,09,1,N6,0,0,0,0,0,0,0,0,N6,0,0,0,0,0,0,0,0,n6,0,0,0,0,0,0,0,0,n6,0,0,0,0,0,0,0,0
01/09/11,09:38:42,51 52.3560 N,002 54.2865 W,181.36,280.54,1395.8,09,1,N7,0,0,0,0,0,0,0,0,N7,0,0,0,0,0,0,0,0,n7,0,0,0,0,0,0,0,0,n7,0,0,0,0,0,0,0,0
01/09/11,09:38:47,51 52.4013 N,002 54.6856 W,181.02,280.36,1396.4,09,1,N8,0,0,0,0,0,0,0,0,N8,0,0,0,0,0,0,0,0,n8,0,0,0,0,0,0,0,0,n8,0,0,0,0,0,0,0,0
01/09/11,09:38:54,51 52.4654 N,002 55.2432 W,180.69,280.65,1397.2,09,1,N9,0,0,0,0,0,0,0,0,N9,0,0,0,0,0,0,0,0,n9,0,0,0,0,0,0,0,0,n9,0,0,0,0,0,0,0,0
01/09/11,09:39:00,51 52.5210 N,002 55.7211 W,180.84,280.71,1397.3,09,1,N0,0,0,0,0,0,0,0,0,N0,0,0,0,0,0,0,0,0,n0,0,0,0,0,0,0,0,0,n0,0,0,0,0,0,0,0,0
01/09/11,09:39:06,51 52.5782 N,002 56.1984 W,180.85,281.10,1397.5,09,1,N1,0,0,0,0,0,0,0,0,N1,0,0,0,0,0,0,0,0,n1,0,0,0,0,0,0,0,0,n1,0,0,0,0,0,0,0,0
01/09/11,09:39:12,51 52.6367 N,002 56.6757 W,181.00,281.23,1396.2,09,1,N2,0,0,0,0,0,0,0,0,N2,0,0,0,0,0,0,0,0,n2,0,0,0,0,0,0,0,0,n2,0,0,0,0,0,0,0,0
01/09/11,09:39:17,51 52.6858 N,002 57.0732 W,180.82,281.37,1396.4,09,1,N3,0,0,0,0,0,0,0,0,N3,0,0,0,0,0,0,0,0,n3,0,0,0,0,0,0,0,0,n3,0,0,0,0,0,0,0,0
01/09/11,09:39:24,51 52.7560 N,002 57.6292 W,180.93,281.61,1394.7,09,1,N4,7,7,7,7,7,7,7,7,N4,7,7,7,7,7,7,7,7,n4,4,0,0,0,0,0,0,0,n4,0,0,0,0,0,0,0,0
01/09/11,09:39:30,51 52.8169 N,002 58.1052 W,180.64,281.81,1395.8,09,1,N5,0,0,0,0,0,0,0,0,N5,0,0,0,0,0,0,0,0,n5,0,0,0,0,0,0,0,0,n5,0,0,0,0,0,0,0,0
01/09/11,09:39:36,51 52.8793 N,002 58.5805 W,180.74,282.00,1396.5,09,1,N6,0,0,0,0,0,0,0,0,N6,0,0,0,0,0,0,0,0,n6,0,0,0,0,0,0,0,0,n6,0,0,0,0,0,0,0,0
01/09/11,09:39:42,51 52.9410 N,002 59.0558 W,180.46,281.76,1397.4,09,1,N7,0,0,0,0,0,0,0,0,N7,0,0,0,0,0,0,0,0,n7,0,0,0,0,0,0,0,0,n7,0,0,0,0,0,0,0,0
01/09/11,09:39:47,51 52.9919 N,002 59.4510 W,179.98,281.75,1398.0,09,1,N8,0,0,0,0,0,0,0,0,N8,0,0,0,0,0,0,0,0,n8,0,0,0,0,0,0,0,0,n8,0,0,0,0,0,0,0,0
01/09/11,09:39:54,51 53.0625 N,003 00.0032 W,179.67,281.64,1397.7,09,1,N9,0,0,0,0,0,0,0,0,N9,0,0,0,0,0,0,0,0,n9,0,0,0,0,0,0,0,0,n9,0,0,0,0,0,0,0,0
01/09/11,09:40:00,51 53.1227 N,003 00.4768 W,179.85,281.65,1397.7,09,1,N0,0,0,0,0,0,0,0,0,N0,0,0,0,0,0,0,0,0,n0,0,0,0,0,0,0,0,0,n0,0,0,0,0,0,0,0,0
01/09/11,09:40:06,51 53.1830 N,003 00.9517 W,180.50,281.55,1395.5,09,1,N1,0,0,0,0,0,0,0,0,N1,0,0,0,0,0,0,0,0,n1,0,0,0,0,0,0,0,0,n1,0,0,0,0,0,0,0,0
01/09/11,09:40:12,51 53.2426 N,003 01.4280 W,180.67,281.40,1395.3,09,1,N2,0,0,0,0,0,0,0,0,N2,0,0,0,0,0,0,0,0,n2,0,0,0,0,0,0,0,0,n2,0,0,0,0,0,0,0,0
01/09/11,09:40:17,51 53.2919 N,003 01.8251 W,180.74,281.33,1394.0,09,1,N3,0,0,0,0,0,0,0,0,N3,0,0,0,0,0,0,0,0,n3,0,0,0,0,0,0,0,0,n3,0,0,0,0,0,0,0,0
01/09/11,09:40:24,51 53.3606 N,003 02.3808 W,180.48,281.24,1394.6,09,1,N4,0,0,0,0,0,0,0,0,N4,0,0,0,0,0,0,0,0,n4,0,0,0,0,0,0,0,0,n4,0,0,0,0,0,0,0,0
01/09/11,09:40:30,51 53.4185 N,003 02.8569 W,180.36,281.11,1395.7,09,1,N5,0,0,0,0,0,0,0,0,N5,0,0,0,0,0,0,0,0,n5,0,0,0,0,0,0,0,0,n5,0,0,0,0,0,0,0,0
01/09/11,09:40:36,51 53.4754 N,003 03.3335 W,180.51,280.90,1397.5,09,1,N6,0,0,0,0,0,0,0,0,N6,0,0,0,0,0,0,0,0,n6,0,0,0,0,0,0,0,0,n6,0,0,0,0,0,0,0,0
01/09/11,09:40:42,51 53.5328 N,003 03.8103 W,180.66,281.06,1399.3,09,1,N7,0,0,0,0,0,0,0,0,N7,0,0,0,0,0,0,0,0,n7,0,0,0,0,0,0,0,0,n7,0,0,0,0,0,0,0,0
01/09/11,09:40:47,51 53.5806 N,003 04.2092 W,181.47,280.99,1396.4,09,1,N8,0,0,0,0,0,0,0,0,N8,0,0,0,0,0,0,0,0,n8,0,0,0,0,0,0,0,0,n8,0,0,0,0,0,0,0,0
01/09/11,09:40:54,51 53.6468 N,003 04.7688 W,181.35,280.70,1394.1,09,1,N9,0,0,0,0,0,0,0,0,N9,0,0,0,0,0,0,0,0,n9,0,0,0,0,0,0,0,0,n9,0,0,0,0,0,0,0,0
01/09/11,09:41:00,51 53.7019 N,003 05.2467 W,180.37,280.55,1395.9,09,1,N0,0,0,0,0,0,0,0,0,N0,0,0,0,0,0,0,0,0,n0,0,0,0,0,0,0,0,0,n0,0,0,0,0,0,0,0,0
01/09/11,09:41:06,51 53.7562 N,003 05.7225 W,179.73,280.53,1397.9,09,1,N1,0,0,0,0,0,0,0,0,N1,0,0,0,0,0,0,0,0,n1,0,0,0,0,0,0,0,0,n1,0,0,0,0,0,0,0,0
01/09/11,09:41:12,51 53.8103 N,003 06.1977 W,179.68,280.42,1398.1,09,1,N2,0,0,0,0,0,0,0,0,N2,0,0,0,0,0,0,0,0,n2,0,0,0,0,0,0,0,0,n2,0,0,0,0,0,0,0,0
01/09/11,09:41:17,51 53.8559 N,003 06.5943 W,180.01,280.61,1396.8,09,1,N3,0,0,0,0,0,0,0,0,N3,0,0,0,0,0,0,0,0,n3,0,0,0,0,0,0,0,0,n3,0,0,0,0,0,0,0,0
01/09/11,09:41:24,51 53.9200 N,003 07.1501 W,180.08,280.49,1393.2,09,1,N4,0,0,0,0,0,0,0,0,N4,0,0,0,0,0,0,0,0,n4,0,0,0,0,0,0,0,0,n4,0,0,0,0,0,0,0,0
01/09/11,09:41:30,51 53.9746 N,003 07.6243 W,178.95,280.64,1395.1,09,1,N5,0,0,0,0,0,0,0,0,N5,0,0,0,0,0,0,0,0,n5,0,0,0,0,0,0,0,0,n5,0,0,0,0,0,0,0,0
01/09/11,09:41:36,51 54.0302 N,003 08.0959 W,178.10,280.80,1397.6,09,1,N6,0,0,0,0,0,0,0,0,N6,0,0,0,0,0,0,0,0,n6,0,0,0,0,0,0,0,0,n6,0,0,0,0,0,0,0,0
01/09/11,09:41:42,51 54.0861 N,003 08.5644 W,177.17,281.09,1401.5,09,1,N7,0,0,0,0,0,0,0,0,N7,0,0,0,0,0,0,0,0,n7,0,0,0,0,0,0,0,0,n7,0,0,0,0,0,0,0,0
01/09/11,09:41:47,51 54.1345 N,003 08.9544 W,177.56,281.45,1402.5,09,1,N8,0,0,0,0,0,0,0,0,N8,0,0,0,0,0,0,0,0,n8,0,0,0,0,0,0,0,0,n8,0,0,0,0,0,0,0,0
01/09/11,09:41:54,51 54.2045 N,003 09.5034 W,179.31,281.76,1398.4,09,1,N9,0,0,0,0,0,0,0,0,N9,0,0,0,0,0,0,0,0,n9,0,0,0,0,0,0,0,0,n9,0,0,0,0,0,0,0,0
01/09/11,09:42:00,51 54.2667 N,003 09.9778 W,180.58,282.09,1391.2,09,1,N0,0,0,0,0,0,0,0,0,N0,0,0,0,0,0,0,0,0,n0,0,0,0,0,0,0,0,0,n0,0,0,0,0,0,0,0,0
01/09/11,09:42:06,51 54.3296 N,003 10.4516 W,179.46,282.12,1388.5,09,1,N1,0,0,0,0,0,0,0,0,N1,0,0,0,0,0,0,0,0,n1,0,0,0,0,0,0,0,0,n1,0,0,0,0,0,0,0,0
01/09/11,09:42:12,51 54.3928 N,003 10.9202 W,177.72,282.38,1394.1,09,1,N2,0,0,0,0,0,0,0,0,N2,0,0,0,0,0,0,0,0,n2,0,0,0,0,0,0,0,0,n2,0,0,0,0,0,0,0,0
01/09/11,09:42:17,51 54.4461 N,003 11.3082 W,177.24,282.60,1398.8,09,1,N3,0,0,0,0,0,0,0,0,N3,0,0,0,0,0,0,0,0,n3,0,0,0,0,0,0,0,0,n3,0,0,0,0,0,0,0,0
01/09/11,09:42:24,51 54.5226 N,003 11.8543 W,179.02,282.84,1396.9,09,1,N4,0,0,0,0,0,0,0,0,N4,0,0,0,0,0,0,0,0,n4,0,0,0,0,0,0,0,0,n4,0,0,0,0,0,0,0,0
01/09/11,09:42:30,51 54.5896 N,003 12.3260 W,180.20,282.92,1392.5,09,1,N5,0,0,0,0,0,0,0,0,N5,0,0,0,0,0,0,0,0,n5,0,0,0,0,0,0,0,0,n5,0,0,0,0,0,0,0,0
01/09/11,09:42:36,51 54.6560 N,003 12.7985 W,179.87,282.75,1394.4,09,1,N6,0,0,0,0,0,0,0,0,N6,0,0,0,0,0,0,0,0,n6,0,0,0,0,0,0,0,0,n6,0,0,0,0,0,0,0,0
01/09/11,09:42:42,51 54.7221 N,003 13.2699 W,179.58,282.82,1396.6,09,1,N7,0,0,0,0,0,0,0,0,N7,0,0,0,0,0,0,0,0,n7,0,0,0,0,0,0,0,0,n7,0,0,0,0,0,0,0,0
01/09/11,09:42:47,51 54.7774 N,003 13.6627 W,179.70,282.89,1396.1,09,1,N8,0,0,0,0,0,0,0,0,N8,0,0,0,0,0,0,0,0,n8,0,0,0,0,0,0,0,0,n8,0,0,0,0,0,0,0,0